Overview Statistics Trail Chart Weather Telemetry Raw packets
 

This is the latest recevied weather packets stored in our database for station/object EA5FOG-11. If no packets are shown the sender has not sent any weather packets the latest 10 day(s).

<< 1 2 3 4 >>
Time Temp. Humidity Pressure Rain* Wind** Luminosity Snow
1788612147 43.33° C 26% 964 hPa - - - -
1788611246 42.78° C 27% 964.1 hPa - - - -
1788610345 43.33° C 27% 964.1 hPa - - - -
1788609445 42.78° C 28% 964.3 hPa - - - -
1788608544 41.11° C 29% 964.6 hPa - - - -
1788607661 40° C 29% 964.6 hPa - - - -
1788606742 37.78° C 31% 964.5 hPa - - - -
1788605841 37.78° C 31% 964.6 hPa - - - -
1788604941 37.78° C 31% 964.8 hPa - - - -
1788604040 37.22° C 33% 964.9 hPa - - - -
1788603139 36.67° C 34% 965.1 hPa - - - -
1788602238 36.67° C 35% 965.1 hPa - - - -
1788601337 35.56° C 36% 965.1 hPa - - - -
1788600437 35.56° C 37% 965 hPa - - - -
1788599536 35° C 38% 965 hPa - - - -
1788598635 35° C 39% 964.7 hPa - - - -
1788597734 36.11° C 38% 964.8 hPa - - - -
1788596833 36.11° C 38% 964.8 hPa - - - -
1788595933 33.89° C 39% 964.9 hPa - - - -
1788595032 29.44° C 44% 964.9 hPa - - - -
1788594131 28.33° C 45% 964.8 hPa - - - -
1788593230 28.33° C 45% 964.8 hPa - - - -
1788592349 26.67° C 47% 964.8 hPa - - - -
1788591448 25.56° C 48% 964.7 hPa - - - -
1788590547 24.44° C 49% 964.5 hPa - - - -

* Rain since midnight (hover to see other rain measurements)
** Current wind speed in m/s (hover to see current wind gust speed)